Superior, WI

1:34 AM CST on November 15, 2019 (GMT -0600)
Bong

Weather History for KSUW - October, 2019

Change the Weather History Date:

Wednesday, October 23, 2019

  Actual Average Record
Temperature  
Mean Temperature 40 °F -  
Max Temperature 48 °F 52 °F 83 °F (1963)
Min Temperature 35 °F 34 °F 15 °F (1969)
Degree Days  
Heating Degree Days 24    
Moisture  
Dew Point 32 °F    
Average Humidity 73    
Maximum Humidity 84    
Minimum Humidity 56    
Precipitation  
Precipitation 0.00 in - - ()
Sea Level Pressure  
Sea Level Pressure 29.83 in    
Wind  
Wind Speed 10 mph (WNW)    
Max Wind Speed 14 mph    
Max Gust Speed 21 mph    
Visibility 10 miles    
Events      
Averages and records for this station are not official NWS values.
T = Trace of Precipitation, MM = Missing Value Source: NWS Daily Summary

Daily Weather History Graph

Daily Weather History Graph

Search for Another Location

Airport or City:

Astronomy

Oct. 23, 2019 Rise Set
Actual Time 7:37 AM CDT 6:07 PM CDT
Civil Twilight 7:06 AM CDT 6:38 PM CDT
Nautical Twilight 6:30 AM CDT 7:13 PM CDT
Astronomical Twilight 5:55 AM CDT 7:48 PM CDT
Moon 1:29 AM CDT (10/23) 4:22 PM CDT (10/23)
Length of Visible Light 11h 32m
Length of Day
10h 30m
Waning Crescent, 26% of the Moon is Illuminated
Oct 23
Waning Crescent
Oct 27
New
Nov 4
First Quarter
Nov 12
Full
Nov 19
Last Quarter

Hourly Weather History & Observations

Time (CDT) Temp. Windchill Dew Point Humidity Pressure Visibility Wind Dir Wind Speed Gust Speed Precip Events Conditions
1:15 AM 38.8 °F 30.8 °F 32.9 °F 79% 29.57 in 10.0 mi West 13.8 mph - N/A   Overcast
1:35 AM 39.2 °F 32.0 °F 32.4 °F 76% 29.58 in 10.0 mi West 11.5 mph 17.3 mph N/A   Overcast
2:15 AM 38.7 °F 31.4 °F 32.2 °F 78% 29.59 in 10.0 mi West 11.5 mph - N/A   Overcast
2:35 AM 38.3 °F 30.9 °F 32.4 °F 79% 29.60 in 10.0 mi West 11.5 mph 17.3 mph N/A   Overcast
2:55 AM 38.3 °F 30.9 °F 32.0 °F 78% 29.60 in 10.0 mi West 11.5 mph - N/A   Overcast
3:15 AM 37.6 °F 30.5 °F 32.0 °F 80% 29.61 in 10.0 mi West 10.4 mph - N/A   Overcast
3:35 AM 37.6 °F 31.6 °F 32.0 °F 80% 29.62 in 10.0 mi West 8.1 mph - N/A   Overcast
3:55 AM 37.8 °F 31.8 °F 32.0 °F 80% 29.62 in 10.0 mi West 8.1 mph - N/A   Overcast
4:15 AM 37.9 °F 31.5 °F 32.0 °F 79% 29.62 in 10.0 mi West 9.2 mph - N/A   Overcast
4:35 AM 38.3 °F 31.9 °F 32.0 °F 78% 29.63 in 10.0 mi West 9.2 mph - N/A   Overcast
4:55 AM 37.9 °F 30.9 °F 31.8 °F 79% 29.64 in 10.0 mi West 10.4 mph - N/A   Overcast
5:15 AM 37.8 °F 30.2 °F 32.0 °F 80% 29.66 in 10.0 mi West 11.5 mph - N/A   Overcast
5:35 AM 37.4 °F 29.8 °F 32.0 °F 81% 29.67 in 10.0 mi West 11.5 mph 16.1 mph N/A   Overcast
5:55 AM 37.0 °F 30.4 °F 32.2 °F 83% 29.68 in 10.0 mi West 9.2 mph - N/A   Overcast
6:15 AM 37.0 °F 29.8 °F 32.0 °F 82% 29.69 in 10.0 mi WNW 10.4 mph - N/A   Overcast
6:35 AM 36.9 °F 28.7 °F 31.3 °F 80% 29.69 in 10.0 mi West 12.7 mph 18.4 mph N/A   Mostly Cloudy
6:55 AM 36.9 °F 29.6 °F 30.9 °F 79% 29.70 in 10.0 mi West 10.4 mph - N/A   Scattered Clouds
7:15 AM 36.5 °F 30.3 °F 31.1 °F 81% 29.71 in 10.0 mi West 8.1 mph 16.1 mph N/A   Mostly Cloudy
7:35 AM 36.3 °F 30.8 °F 31.1 °F 81% 29.72 in 10.0 mi West 6.9 mph - N/A   Mostly Cloudy
7:55 AM 36.1 °F 29.9 °F 31.1 °F 82% 29.72 in 10.0 mi West 8.1 mph - N/A   Mostly Cloudy
8:15 AM 36.1 °F 30.6 °F 30.9 °F 81% 29.73 in 10.0 mi West 6.9 mph 18.4 mph N/A   Scattered Clouds
8:35 AM 36.5 °F 29.2 °F 31.1 °F 81% 29.74 in 10.0 mi West 10.4 mph - N/A   Scattered Clouds
8:55 AM 37.4 °F 30.3 °F 30.7 °F 77% 29.76 in 10.0 mi West 10.4 mph 19.6 mph N/A   Mostly Cloudy
9:15 AM 37.8 °F 32.5 °F 31.1 °F 77% 29.76 in 10.0 mi West 6.9 mph 17.3 mph N/A   Overcast
9:35 AM 38.7 °F 31.8 °F 31.1 °F 74% 29.77 in 10.0 mi WNW 10.4 mph 17.3 mph N/A   Overcast
9:55 AM 38.5 °F 32.1 °F 31.5 °F 76% 29.79 in 10.0 mi West 9.2 mph - N/A   Overcast
10:15 AM 39.6 °F 34.7 °F 31.6 °F 73% 29.79 in 10.0 mi WNW 6.9 mph - N/A   Overcast
10:35 AM 39.7 °F 32.3 °F 31.8 °F 73% 29.79 in 10.0 mi West 12.7 mph - N/A   Overcast
10:55 AM 40.3 °F 33.9 °F 31.3 °F 70% 29.79 in 10.0 mi NW 10.4 mph 19.6 mph N/A   Overcast
11:15 AM 40.6 °F 35.4 °F 30.9 °F 68% 29.80 in 10.0 mi NW 8.1 mph 17.3 mph N/A   Overcast
11:55 AM 43.2 °F 37.4 °F 31.8 °F 64% 29.81 in 10.0 mi WNW 10.4 mph - N/A   Mostly Cloudy
12:15 PM 41.2 °F 35.0 °F 32.0 °F 70% 29.82 in 10.0 mi NW 10.4 mph - N/A   Mostly Cloudy
12:55 PM 43.5 °F 38.3 °F 31.8 °F 63% 29.84 in 10.0 mi NW 9.2 mph - N/A   Overcast
1:15 PM 44.6 °F 39.2 °F 31.8 °F 61% 29.84 in 10.0 mi WNW 10.4 mph - N/A   Overcast
1:35 PM 43.3 °F 38.1 °F 32.5 °F 66% 29.84 in 10.0 mi West 9.2 mph - N/A   Overcast
1:55 PM 44.6 °F 39.2 °F 31.5 °F 60% 29.84 in 10.0 mi WNW 10.4 mph 18.4 mph N/A   Scattered Clouds
2:15 PM 45.3 °F 40.6 °F 30.9 °F 57% 29.84 in 10.0 mi WNW 9.2 mph 16.1 mph N/A   Mostly Cloudy
2:35 PM 46.4 °F 41.1 °F 31.6 °F 56% 29.85 in 10.0 mi WNW 11.5 mph 18.4 mph N/A   Mostly Cloudy
2:55 PM 46.0 °F 40.6 °F 32.0 °F 58% 29.85 in 10.0 mi West 11.5 mph 20.7 mph N/A   Mostly Cloudy
3:15 PM 45.7 °F 41.0 °F 31.5 °F 58% 29.86 in 10.0 mi WNW 9.2 mph - N/A   Mostly Cloudy
3:35 PM 45.5 °F 41.3 °F 31.8 °F 59% 29.87 in 10.0 mi West 8.1 mph - N/A   Overcast
3:55 PM 46.2 °F 40.8 °F 31.3 °F 56% 29.88 in 10.0 mi West 11.5 mph 16.1 mph N/A   Overcast
4:15 PM 45.3 °F 41.6 °F 31.6 °F 59% 29.88 in 10.0 mi WNW 6.9 mph - N/A   Overcast
4:35 PM 45.3 °F 40.1 °F 32.0 °F 60% 29.90 in 10.0 mi West 10.4 mph - N/A   Overcast
4:55 PM 45.9 °F 40.0 °F 32.0 °F 58% 29.90 in 10.0 mi West 12.7 mph 17.3 mph N/A   Overcast
5:15 PM 45.0 °F 39.3 °F 32.0 °F 60% 29.91 in 10.0 mi WNW 11.5 mph - N/A   Overcast
5:35 PM 43.7 °F 37.3 °F 31.6 °F 63% 29.92 in 10.0 mi WNW 12.7 mph 17.3 mph N/A   Mostly Cloudy
5:55 PM 43.3 °F 37.2 °F 31.5 °F 63% 29.93 in 10.0 mi WNW 11.5 mph 18.4 mph N/A   Scattered Clouds
6:15 PM 42.1 °F 35.2 °F 31.5 °F 66% 29.94 in 10.0 mi WNW 12.7 mph - N/A   Scattered Clouds
6:35 PM 40.6 °F 34.8 °F 31.6 °F 70% 29.95 in 10.0 mi WNW 9.2 mph - N/A   Clear
6:55 PM 40.8 °F 33.3 °F 32.0 °F 71% 29.96 in 10.0 mi WNW 13.8 mph 18.4 mph N/A   Clear
7:15 PM 40.1 °F 33.6 °F 32.0 °F 73% 29.97 in 10.0 mi WNW 10.4 mph - N/A   Clear
7:35 PM 39.7 °F 33.7 °F 32.0 °F 74% 29.98 in 10.0 mi WNW 9.2 mph - N/A   Clear
7:55 PM 39.6 °F 33.5 °F 32.0 °F 74% 29.99 in 10.0 mi WNW 9.2 mph - N/A   Clear
8:15 PM 39.2 °F 32.5 °F 32.0 °F 75% 30.00 in 10.0 mi WNW 10.4 mph - N/A   Clear
8:35 PM 38.3 °F 31.9 °F 32.0 °F 78% 30.01 in 10.0 mi WNW 9.2 mph - N/A   Clear
8:55 PM 38.5 °F 31.6 °F 32.0 °F 78% 30.01 in 10.0 mi WNW 10.4 mph - N/A   Clear
9:15 PM 37.2 °F 31.9 °F 31.8 °F 81% 30.02 in 10.0 mi West 6.9 mph - N/A   Clear
9:35 PM 37.6 °F 30.0 °F 31.8 °F 80% 30.03 in 10.0 mi West 11.5 mph - N/A   Clear
9:55 PM 37.0 °F 30.4 °F 31.6 °F 81% 30.04 in 10.0 mi West 9.2 mph - N/A   Scattered Clouds
10:15 PM 37.4 °F 32.1 °F 31.8 °F 80% 30.04 in 10.0 mi West 6.9 mph - N/A   Overcast
10:35 PM 37.6 °F 30.5 °F 32.0 °F 80% 30.05 in 10.0 mi West 10.4 mph - N/A   Overcast
10:55 PM 36.9 °F 32.2 °F 31.6 °F 81% 30.06 in 10.0 mi West 5.8 mph - N/A   Mostly Cloudy
11:15 PM 36.5 °F 31.8 °F 31.5 °F 82% 30.06 in 10.0 mi West 5.8 mph - N/A   Scattered Clouds
11:35 PM 35.6 °F 31.7 °F 31.1 °F 84% 30.07 in 10.0 mi WSW 4.6 mph - N/A   Scattered Clouds
11:55 PM 36.5 °F 31.8 °F 32.0 °F 84% 30.07 in 10.0 mi WSW 5.8 mph - N/A   Mostly Cloudy